• In Hungary
  • List of Countries
  • For 7 days
  • Water Temperature
  • Satellite Maps
  • Weather Map
  • News
  • Weather Widgets
  • user-avatar
    Login

    Hourly Weather Mostovka

    Today, 21 February, Wednesday

    Time Temperature Precipitation Wind Pressure Humidity
    00:00 -20°C° 0 mm 2 mps 695 mmHg 92%
    01:00 -20°C° 0 mm 2 mps 694 mmHg 92%
    02:00 -20°C° 0 mm 2 mps 694 mmHg 92%
    03:00 -20°C° 0 mm 2 mps 694 mmHg 92%
    04:00 -19°C° 0 mm 2 mps 694 mmHg 92%
    05:00 -20°C° 0 mm 2 mps 693 mmHg 92%
    06:00 -20°C° 0 mm 2 mps 693 mmHg 93%
    07:00 -20°C° 0 mm 2 mps 693 mmHg 93%
    08:00 -19°C° 0 mm 3 mps 693 mmHg 89%
    09:00 -17°C° 0 mm 3 mps 693 mmHg 86%
    10:00 -15°C° 0 mm 4 mps 693 mmHg 83%
    11:00 -14°C° 0.1 mm 4 mps 693 mmHg 80%
    12:00 -14°C° 0.1 mm 5 mps 692 mmHg 78%
    13:00 -13°C° 0.1 mm 5 mps 692 mmHg 76%
    14:00 -13°C° 0.1 mm 5 mps 691 mmHg 78%
    15:00 -12°C° 0.1 mm 4 mps 691 mmHg 79%
    16:00 -14°C° 0.1 mm 4 mps 691 mmHg 81%
    17:00 -15°C° 0.1 mm 4 mps 691 mmHg 85%
    18:00 -15°C° 0.1 mm 3 mps 691 mmHg 88%
    19:00 -16°C° 0.1 mm 3 mps 691 mmHg 92%
    20:00 -17°C° 0.1 mm 3 mps 691 mmHg 92%
    21:00 -16°C° 0.1 mm 2 mps 691 mmHg 93%
    22:00 -16°C° 0.1 mm 2 mps 691 mmHg 93%
    23:00 -16°C° 0.1 mm 2 mps 691 mmHg 94%

    Tomorrow, 22 February, Thursday

    Time Temperature Precipitation Wind Pressure Humidity
    00:00 -17°C° 0.1 mm 2 mps 691 mmHg 94%
    01:00 -17°C° 0.1 mm 2 mps 690 mmHg 95%
    02:00 -17°C° 0.1 mm 2 mps 690 mmHg 95%
    03:00 -15°C° 0.1 mm 1 mps 690 mmHg 96%
    04:00 -16°C° 0.1 mm 1 mps 690 mmHg 96%
    05:00 -16°C° 0.1 mm 1 mps 690 mmHg 96%
    06:00 -16°C° 0.1 mm 1 mps 690 mmHg 96%
    07:00 -16°C° 0.1 mm 1 mps 690 mmHg 96%
    08:00 -15°C° 0.1 mm 1 mps 690 mmHg 92%
    09:00 -16°C° 0.1 mm 2 mps 690 mmHg 89%
    10:00 -14°C° 0.1 mm 2 mps 690 mmHg 85%
    11:00 -14°C° 0.1 mm 2 mps 690 mmHg 83%
    12:00 -14°C° 0.1 mm 3 mps 689 mmHg 80%
    13:00 -14°C° 0.1 mm 3 mps 689 mmHg 78%
    14:00 -14°C° 0.1 mm 3 mps 689 mmHg 79%
    15:00 -15°C° 0.1 mm 3 mps 689 mmHg 80%
    16:00 -14°C° 0.1 mm 2 mps 689 mmHg 81%
    17:00 -16°C° 0 mm 2 mps 690 mmHg 86%
    18:00 -15°C° 0 mm 1 mps 690 mmHg 90%
    19:00 -17°C° 0 mm 0 mps 691 mmHg 95%
    20:00 -18°C° 0 mm 0 mps 691 mmHg 95%
    21:00 -19°C° 0 mm 0 mps 692 mmHg 96%
    22:00 -20°C° 0 mm 0 mps 692 mmHg 96%
    23:00 -21°C° 0 mm 0 mps 692 mmHg 96%

    Day after tomorrow, 23 February, Friday

    Time Temperature Precipitation Wind Pressure Humidity
    00:00 -21°C° 0 mm 0 mps 693 mmHg 96%
    01:00 -22°C° 0 mm 0 mps 693 mmHg 95%
    02:00 -22°C° 0 mm 0 mps 693 mmHg 95%
    03:00 -23°C° 0 mm 1 mps 694 mmHg 95%
    04:00 -23°C° 0 mm 1 mps 694 mmHg 94%
    05:00 -23°C° 0 mm 1 mps 694 mmHg 94%
    06:00 -24°C° 0 mm 1 mps 695 mmHg 93%
    07:00 -24°C° 0 mm 1 mps 695 mmHg 93%
    08:00 -20°C° 0 mm 1 mps 695 mmHg 89%
    09:00 -17°C° 0 mm 1 mps 696 mmHg 84%
    10:00 -14°C° 0 mm 1 mps 696 mmHg 80%
    11:00 -13°C° 0 mm 1 mps 696 mmHg 77%
    12:00 -11°C° 0 mm 1 mps 695 mmHg 75%
    13:00 -10°C° 0 mm 2 mps 695 mmHg 72%
    14:00 -9°C° 0 mm 1 mps 695 mmHg 75%
    15:00 -9°C° 0 mm 1 mps 695 mmHg 77%
    16:00 -9°C° 0 mm 1 mps 695 mmHg 80%
    17:00 -11°C° 0 mm 1 mps 695 mmHg 83%
    18:00 -13°C° 0 mm 1 mps 695 mmHg 87%
    19:00 -15°C° 0 mm 1 mps 695 mmHg 90%
    20:00 -16°C° 0 mm 1 mps 695 mmHg 91%
    21:00 -17°C° 0 mm 1 mps 695 mmHg 91%
    22:00 -17°C° 0 mm 1 mps 696 mmHg 92%
    23:00 -17°C° 0 mm 1 mps 696 mmHg 92%

    24 February, Saturday

    Time Temperature Precipitation Wind Pressure Humidity
    00:00 -17°C° 0 mm 1 mps 696 mmHg 92%
    01:00 -17°C° 0 mm 1 mps 696 mmHg 92%
    02:00 -17°C° 0 mm 1 mps 695 mmHg 92%
    03:00 -17°C° 0 mm 1 mps 695 mmHg 91%
    04:00 -17°C° 0 mm 1 mps 695 mmHg 91%
    05:00 -17°C° 0 mm 1 mps 695 mmHg 91%
    06:00 -16°C° 0 mm 1 mps 695 mmHg 91%
    07:00 -16°C° 0 mm 1 mps 695 mmHg 90%
    08:00 -14°C° 0 mm 1 mps 695 mmHg 87%
    09:00 -11°C° 0 mm 1 mps 695 mmHg 84%
    10:00 -9°C° 0 mm 1 mps 695 mmHg 80%
    11:00 -7°C° 0 mm 1 mps 694 mmHg 80%
    12:00 -6°C° 0 mm 1 mps 694 mmHg 79%
    13:00 -6°C° 0 mm 2 mps 693 mmHg 79%
    14:00 -4°C° 0 mm 1 mps 693 mmHg 80%
    15:00 -4°C° 0 mm 1 mps 693 mmHg 82%
    16:00 -6°C° 0 mm 1 mps 693 mmHg 84%
    17:00 -8°C° 0 mm 1 mps 693 mmHg 87%
    18:00 -10°C° 0 mm 1 mps 693 mmHg 89%
    19:00 -13°C° 0 mm 1 mps 693 mmHg 92%
    20:00 -13°C° 0 mm 1 mps 693 mmHg 92%
    21:00 -13°C° 0 mm 1 mps 693 mmHg 92%
    22:00 -14°C° 0 mm 1 mps 693 mmHg 91%
    23:00 -14°C° 0 mm 1 mps 693 mmHg 91%

    25 February, Sunday

    Time Temperature Precipitation Wind Pressure Humidity
    00:00 -14°C° 0 mm 1 mps 693 mmHg 90%
    01:00 -14°C° 0 mm 1 mps 692 mmHg 90%
    02:00 -15°C° 0 mm 1 mps 692 mmHg 90%
    03:00 -15°C° 0 mm 1 mps 692 mmHg 90%
    04:00 -15°C° 0 mm 1 mps 692 mmHg 90%
    05:00 -15°C° 0 mm 1 mps 692 mmHg 89%
    06:00 -15°C° 0 mm 1 mps 691 mmHg 89%
    07:00 -15°C° 0 mm 1 mps 691 mmHg 89%
    08:00 -12°C° 0 mm 1 mps 691 mmHg 85%
    09:00 -9°C° 0 mm 1 mps 691 mmHg 82%
    10:00 -6°C° 0 mm 1 mps 691 mmHg 78%
    11:00 -4°C° 0 mm 1 mps 691 mmHg 77%
    12:00 -3°C° 0 mm 0 mps 690 mmHg 76%
    13:00 -2°C° 0 mm 0 mps 690 mmHg 75%
    14:00 -2°C° 0 mm 0 mps 689 mmHg 78%
    15:00 -2°C° 0 mm 1 mps 689 mmHg 82%
    16:00 -3°C° 0 mm 1 mps 689 mmHg 85%
    17:00 -4°C° 0.2 mm 1 mps 689 mmHg 88%
    18:00 -6°C° 0.2 mm 1 mps 689 mmHg 92%
    19:00 -7°C° 0.2 mm 1 mps 690 mmHg 95%
    20:00 -8°C° 0.3 mm 1 mps 690 mmHg 95%
    21:00 -8°C° 0.3 mm 1 mps 690 mmHg 96%
    22:00 -9°C° 0.3 mm 2 mps 690 mmHg 96%
    23:00 -10°C° 0.3 mm 2 mps 690 mmHg 96%

    26 February, Monday

    Time Temperature Precipitation Wind Pressure Humidity
    00:00 -10°C° 0.3 mm 2 mps 690 mmHg 96%
    01:00 -10°C° 0.3 mm 2 mps 691 mmHg 96%
    02:00 -10°C° 0.3 mm 2 mps 691 mmHg 96%
    03:00 -12°C° 0.3 mm 2 mps 691 mmHg 96%
    04:00 -12°C° 0.3 mm 2 mps 692 mmHg 96%
    05:00 -13°C° 0.2 mm 2 mps 692 mmHg 96%
    06:00 -13°C° 0.2 mm 2 mps 693 mmHg 96%
    07:00 -12°C° 0.2 mm 1 mps 693 mmHg 97%
    08:00 -13°C° 0.1 mm 2 mps 693 mmHg 94%
    09:00 -13°C° 0.1 mm 2 mps 693 mmHg 91%
    10:00 -12°C° 0.1 mm 2 mps 693 mmHg 88%
    11:00 -10°C° 0.1 mm 2 mps 693 mmHg 86%
    12:00 -10°C° 0.1 mm 2 mps 693 mmHg 84%
    13:00 -9°C° 0.1 mm 2 mps 693 mmHg 82%
    14:00 -10°C° 0.1 mm 2 mps 693 mmHg 83%
    15:00 -10°C° 0.1 mm 2 mps 693 mmHg 84%
    16:00 -10°C° 0.1 mm 2 mps 693 mmHg 85%
    17:00 -11°C° 0 mm 1 mps 693 mmHg 88%
    18:00 -13°C° 0 mm 1 mps 693 mmHg 92%
    19:00 -14°C° 0 mm 1 mps 694 mmHg 95%
    20:00 -15°C° 0 mm 1 mps 694 mmHg 95%
    21:00 -16°C° 0 mm 1 mps 694 mmHg 96%
    22:00 -17°C° 0 mm 1 mps 694 mmHg 96%
    23:00 -17°C° 0 mm 1 mps 694 mmHg 96%
    Show more